Flag for USA

Past Weather in Sahuarita, Arizona, USA — Yesterday and Last 2 Weeks

Now
92 °F

Clear.


Feels Like: 88 °F
Forecast: 103 / 77 °F
Wind: 5 mph from Southwest

Location: Tucson International Airport

Current Time: Aug 8, 2020 at 11:04:06 pm

Latest Report: Aug 8, 2020 at 9:53 pm


Visibility: 10 mi

Pressure: 29.80 "Hg (27.18 "Hg at 824m altitude)

Humidity: 18%

Dew Point: 42 °F

Location of SahuaritaLocation

Past Weather in Sahuarita — Graph

°F

Sahuarita Temperature Yesterday

Maximum temperature yesterday: 103 °F (at 12:53 pm)
Minimum temperature yesterday: 82 °F (at 5:53 am)
Average temperature yesterday: 93 °F

High & Low Weather Summary for the Past Weeks

 TemperatureHumidityPressure
High109 °F (Jul 30, 2:53 pm)64% (Jul 25, 4:53 am)30.06 "Hg (Jul 25, 4:53 am)
Low76 °F (Jul 26, 4:53 am)9% (Aug 6, 11:53 am)29.64 "Hg (Jul 28, 4:53 pm)
Average93 °F27%29.80 "Hg
* Reported Jul 24 9:53 pm — Aug 8 9:53 pm, Sahuarita. Weather by CustomWeather, © 2020

Note: Actual official high and low records may vary slightly from our data, if they occured in-between our weather recording intervals... More about our weather records

Sahuarita Weather History for the Previous 24 Hours

Scroll right to see more
 ConditionsComfort  
Time TempWeatherWind HumidityBarometerVisibility
9:53 pm
Sat, Aug 8
92 °FClear.5 mph18%29.80 "Hg10 mi
8:53 pm96 °FClear.5 mph15%29.78 "Hg10 mi
7:53 pm99 °FClear.7 mph13%29.76 "Hg10 mi
6:53 pm102 °FSunny.9 mph12%29.74 "Hg10 mi
5:53 pm104 °FSunny.13 mph11%29.74 "Hg10 mi
4:53 pm105 °FSunny.8 mph11%29.74 "Hg10 mi
3:53 pm105 °FSunny.7 mph12%29.75 "Hg10 mi
2:53 pm105 °FSunny.9 mph13%29.77 "Hg10 mi
1:53 pm103 °FSunny.9 mph15%29.80 "Hg10 mi
12:53 pm101 °FSunny.N/A15%29.82 "Hg10 mi
11:53 am100 °FSunny.7 mph16%29.84 "Hg10 mi
10:53 am96 °FSunny.No wind19%29.87 "Hg10 mi
9:53 am93 °FSunny.6 mph21%29.87 "Hg10 mi
8:53 am90 °FSunny.No wind25%29.88 "Hg10 mi
7:53 am84 °FSunny.3 mph32%29.89 "Hg10 mi
6:53 am80 °FSunny.6 mph36%29.88 "Hg10 mi
5:53 am78 °FSunny.7 mph37%29.87 "Hg10 mi
4:53 am79 °FClear.3 mph35%29.85 "Hg10 mi
3:53 am82 °FClear.7 mph31%29.83 "Hg10 mi
2:53 am83 °FClear.9 mph28%29.83 "Hg10 mi
1:53 am85 °FClear.5 mph28%29.83 "Hg10 mi
12:53 am86 °FClear.8 mph26%29.83 "Hg10 mi
11:53 pm
Fri, Aug 7
90 °FClear.7 mph22%29.83 "Hg10 mi
Weather by CustomWeather, © 2020

See weather overview